ATLAS 5 CENTAUR DEB, 44107

Orbit data source: Space-Track

ATLAS 5 CENTAUR DEB, 44107 is space debris in HEO originally from a launch on Wed, 17 Sep 2014 UTC launched from the Air Force Eastern Test Range (AFETR). Debris objects in space refer to the collection of defunct objects orbiting the Earth. Examples of debris include non-operational satellites, rocket bodies, and fragments generated from explosions, collisions, or faulty payload assembly.

Loading next visibility...
Identifier
44107, 2014-055CC
Orbit
HEO
Country
Flag of USUS
Related business
Flag of USUnited Launch Alliance/Lockheed Martin (US)
Manufacturer
Unknown
Mission
Spacecraft
Bus & Motor
Unknown
Mass
Unknown
Launch date (UTC)
2014-09-17 (12 years ago)
Launch vehicle
Unknown
Launch site
Air Force Eastern Test Range (AFETR)
Object type
Payload
Rocket body
Debris
Shape & HBR
Unknown shape, 1.1 m
Radar Cross Section
Medium (>0.1 m² and <1 m²)

Expand to show TLE details & history
Last TLE update: 17 hours ago

TLE from 17 hours ago
0 ATLAS 5 CENTAUR DEB
1 44107U 14055CC  26236.87716392 -.00000014  00000-0  00000-0 0  9999
2 44107  19.1091 183.9011 4751450  95.7404 318.1899  1.75837332 47747
Epoch: 2026-08-24T21:03Z
TLE epoch observation values (Epoch: 2026-08-24T21:03:06.962Z)
Latitude
-0°
Longitude
-105.14536°
Altitude
17,230.996 km
Speed
4.474 km/s
True Right ascension
12h 15m 08s
True Declination
0° 00' 00"
Sunlit
Object was in daylight at epoch
Visualization orbit readout
Latitude
Unknown
Longitude
Unknown
Altitude
Unknown
Speed
Unknown
Apparent Right ascension
Unknown
Apparent Declination
Unknown
Sunlit
N/A
Visualization observer readout
Local Sidereal Time
05:20:30
Azimuth
Unknown
Elevation
Unknown
Doppler factor
Unknown
Orbital elements
Apogee altitude
36,396.939 km
Perigee altitude
8,841.189 km
Semi-major axis
28,997.201 km
Eccentricity
0.47515
Inclination
19.1091°
RAAN
183.9011°
Arg. of periapsis
95.7404°
True anomaly
264.22321°
Mean anomaly
318.1899°
Eccentric anomaly
293.16007°
Mean motion
0.43955 °/min
Orbital period
819.02 mins
BSTAR
0
Loading maneuver chart data...
Computing Atmospheric mass density...

Documentation

Showing up to 5 results
|